RH
44 45 43 39 43 42 46 52 54 50 38 32 43 44 42 41 45 43 42 53 60 60 62 64 66 66 70 72 75 80 86 91 91 95 89 85 79 69
44 46 45 43 43 44 48 52 55 59 63 39 40 40 43 40 42 45 46 56 50 52 61 64 64 66 71 67 69 75 82 87 93 97 87 83 80 76
48 49 49 46 47 44 46 50 57 57 65 50 43 42 45 46 45 45 47 43 36 47 59 64 62 71 66 64 64 68 78 86 88 95 90 89 82 80
50 51 51 43 50 47 47 49 50 53 59 66 51 48 47 47 48 50 42 36 40 46 57 59 61 68 65 65 64 66 75 74 82 89 95 89 85 83
51 52 51 51 52 48 48 48 48 46 55 60 63 52 51 49 52 50 47 46 41 54 51 52 58 64 64 62 65 65 73 77 80 89 97 91 89 86
51 53 52 52 53 54 52 52 49 52 55 60 61 58 53 52 56 62 55 46 49 42 49 54 60 59 58 58 59 67 69 70 76 83 94 98 95 87
50 50 53 56 63 64 56 55 56 61 60 62 64 63 58 58 59 57 60 57 50 50 57 54 50 51 49 51 56 63 66 72 75 81 88 98 95 93
52 50 49 57 59 63 64 65 62 65 74 79 71 75 68 61 59 62 63 65 64 49 58 59 51 55 52 49 55 61 70 75 77 72 80 98 94 91
51 50 47 42 53 50 56 58 59 61 63 70 84 79 82 68 66 71 69 70 72 61 62 65 55 56 49 41 57 65 73 83 87 79 81 96 95 94
49 48 48 47 48 52 54 53 51 50 51 47 52 55 54 56 66 71 78 78 71 66 60 76 57 56 50 49 58 67 75 77 80 81 84 94 98 95
47 47 49 50 55 62 62 63 59 56 51 59 64 66 64 62 65 64 71 78 81 66 57 65 62 63 60 54 56 67 62 70 75 74 83 95 99 97
46 45 53 54 61 62 60 67 78 62 54 53 52 55 57 58 63 65 95 94 79 78 59 71 64 65 69 54 59 51 50 60 68 70 74 84 99 95
48 48 49 58 60 61 61 64 70 55 58 58 58 58 58 60 63 59 61 76 87 89 63 67 73 74 74 69 58 55 52 57 59 61 71 80 93 96
66 51 47 56 59 63 64 66 67 72 78 83 80 76 68 61 58 61 62 64 66 74 62 88 95 86 85 84 76 61 57 57 57 65 68 77 86 98
58 60 63 62 62 61 62 63 66 63 66 73 67 62 57 62 60 67 69 69 73 75 64 78 85 89 89 89 83 74 70 62 64 66 74 82 83 89
59 59 64 68 68 67 66 61 57 59 63 65 64 62 62 67 68 68 73 81 83 83 74 76 83 92 89 82 81 81 69 76 64 66 71 79 80 81
63 70 70 77 70 58 52 50 53 52 60 63 68 71 70 67 71 75 74 80 84 80 83 81 77 80 84 84 87 82 76 77 69 68 74 85 82 82
78 86 78 60 58 56 56 55 53 56 57 60 66 72 73 71 74 81 85 87 86 83 85 80 82 92 92 82 81 86 81 77 71 70 74 88 88 82
78 68 63 58 57 57 58 60 66 60 58 64 68 71 72 72 73 78 86 82 80 84 86 84 86 88 91 87 68 77 84 82 80 76 76 86 90 85
65 64 61 60 62 67 66 67 66 66 66 68 70 72 76 78 82 80 77 81 82 84 84 85 88 86 88 83 81 70 79 73 78 79 82 86 86 84
61 61 58 61 66 68 68 71 70 72 73 78 78 80 81 83 83 78 76 70 72 83 90 83 80 70 86 88 91 80 73 78 77 77 80 85 93 95
63 62 61 61 65 72 76 77 80 76 80 80 79 78 79 80 83 81 78 79 76 75 79 78 77 86 89 89 84 77 72 71 73 74 76 76 83 99
66 65 69 71 75 77 80 82 80 80 78 80 81 80 81 85 79 78 78 78 78 81 78 81 92 84 85 83 81 81 77 73 74 74 74 77 85 84
Wind_Speed
3 3 4 3 3 4 4 4 5 6 8 2 4 4 8 10 12 13 14 19 18 18 20 21 22 23 21 20 20 19 20 21 17 10 18 20 16 14
3 5 5 4 5 4 4 5 5 7 7 6 7 11 9 10 12 12 13 17 17 17 19 21 21 20 19 20 21 21 20 21 22 20 23 22 17 16
5 6 7 6 6 5 5 5 6 7 10 12 9 11 13 11 10 12 12 11 10 15 16 21 21 17 19 20 19 19 18 19 21 24 23 24 21 17
7 8 9 6 8 8 6 8 8 8 9 13 13 11 12 12 12 11 9 10 11 13 16 17 17 17 18 21 22 20 17 18 20 20 14 21 20 19
8 9 9 9 10 8 8 8 8 8 8 9 11 11 11 10 11 11 10 9 9 13 15 16 14 16 17 19 20 19 19 20 21 17 20 22 21 20
8 9 10 10 11 10 9 10 9 9 10 9 10 11 10 10 9 10 10 7 8 9 12 11 12 14 16 16 16 15 17 19 19 20 23 15 19 19
9 9 10 11 14 13 9 10 11 9 9 10 10 10 11 10 11 9 10 10 10 9 7 8 8 9 9 12 11 13 20 20 19 19 18 14 22 19
9 9 9 11 12 15 16 19 16 12 12 9 9 10 13 11 11 10 10 9 10 1 6 11 9 9 8 9 15 20 20 21 19 18 17 12 23 22
9 9 10 8 11 11 14 16 17 19 20 14 13 12 12 12 10 11 11 11 10 9 10 11 10 11 8 9 16 19 18 19 15 15 16 14 20 21
10 10 11 11 11 11 11 12 12 12 13 11 13 14 14 13 11 11 10 12 11 9 11 11 9 11 10 9 16 11 13 14 15 16 15 14 16 22
9 11 11 12 14 15 12 13 14 13 13 19 21 23 24 23 20 10 11 10 11 10 9 8 9 10 10 10 7 5 13 14 17 17 19 12 12 19
11 11 15 14 17 19 14 13 13 13 13 13 12 14 17 16 22 15 9 11 11 10 8 9 9 6 5 3 3 6 8 12 17 16 16 19 9 11
9 9 9 17 18 19 19 13 13 15 16 13 12 10 10 10 9 10 12 10 9 9 9 7 7 6 6 8 7 9 7 9 10 10 13 15 18 16
10 10 11 16 19 21 19 21 23 20 10 9 10 9 9 10 9 10 11 11 10 12 11 7 6 7 8 9 10 8 9 9 9 8 8 10 19 17
9 14 22 23 23 18 19 20 18 10 9 9 9 9 9 9 12 9 10 11 11 11 10 10 9 9 8 10 10 9 10 8 9 7 7 6 7 9
13 12 14 18 21 17 14 11 9 9 9 9 9 9 8 8 8 8 8 7 8 8 10 11 11 8 9 10 9 9 9 7 6 9 9 8 6 6
15 9 9 6 6 8 9 9 9 9 9 8 8 9 9 9 8 7 8 9 9 9 8 7 9 10 9 12 10 8 8 9 9 9 8 8 6 7
10 7 8 9 10 9 9 9 9 10 9 8 8 8 9 8 8 7 7 8 9 9 8 7 6 6 6 10 16 9 8 10 8 9 8 8 9 6
7 9 9 10 9 9 9 8 9 9 9 8 9 8 8 8 10 8 8 9 11 9 8 8 9 9 9 10 6 20 10 9 8 9 8 6 9 8
8 9 9 9 9 9 9 9 9 8 8 8 8 8 8 8 8 9 9 10 10 9 9 8 9 9 9 9 7 6 18 10 8 8 8 7 8 14
8 9 9 9 8 8 8 9 10 9 9 9 9 8 9 9 9 9 10 16 15 10 10 10 9 16 6 5 8 9 8 13 13 9 6 6 6 4
9 10 9 9 9 9 9 9 9 9 9 8 9 9 9 9 9 10 10 10 10 10 10 8 8 7 9 10 10 11 8 7 11 18 19 17 7 5
10 9 9 9 9 9 9 9 9 9 10 9 9 9 9 9 9 9 10 10 11 10 10 8 7 8 10 9 12 9 12 10 7 7 8 15 19 21
Wind_Direction
284 274 269 281 276 280 282 288 300 311 316 322 314 355 334 332 333 332 331 340 335 340 344 347 346 348 350 347 341 342 342 343 332 256 182 173 191 185
273 269 267 265 264 257 260 259 255 268 278 302 299 312 318 319 320 322 322 320 328 335 337 339 342 341 343 344 340 340 342 343 340 334 184 175 186 179
274 275 277 279 274 272 262 256 258 255 265 286 293 302 305 308 313 315 315 315 317 327 328 332 334 339 340 339 339 339 340 337 337 340 191 175 181 175
280 278 278 278 274 273 269 269 265 263 267 278 291 298 300 309 306 301 303 306 309 313 322 321 325 331 334 332 333 339 337 334 335 342 228 173 172 173
279 277 281 281 277 276 272 271 271 270 267 267 280 291 293 297 303 302 299 297 299 308 311 314 318 320 326 329 328 334 338 343 335 335 329 176 172 175
282 282 283 280 278 280 275 275 275 272 270 270 271 283 289 296 291 296 302 305 305 307 307 302 306 315 320 323 323 325 336 332 327 330 340 196 176 175
281 277 276 283 285 277 276 275 275 273 274 277 277 277 281 288 290 302 295 302 303 293 305 308 315 318 318 319 313 329 327 326 326 326 328 218 165 169
283 284 286 282 272 276 275 278 275 273 271 272 269 262 269 278 282 284 289 291 305 307 323 309 312 308 312 307 320 317 319 318 314 307 310 285 174 173
285 285 283 281 282 281 285 285 281 279 274 276 277 275 280 276 278 283 282 279 280 291 307 300 309 296 303 304 309 311 313 340 321 304 308 311 187 172
281 280 280 282 280 283 283 282 279 273 269 267 267 272 270 266 261 268 275 281 277 273 280 281 297 295 304 297 296 303 319 340 356 346 318 312 206 175
283 282 282 281 280 276 272 272 270 269 270 266 267 271 272 270 259 261 252 255 266 265 259 271 282 290 299 290 278 331 334 337 347 346 349 306 223 185
284 279 276 274 278 280 277 275 273 274 274 270 265 264 264 265 268 260 256 248 251 262 264 252 267 281 289 296 340 329 326 331 332 336 338 343 264 192
285 285 285 283 283 285 281 271 269 276 276 274 270 267 265 263 260 255 252 242 257 268 262 250 267 280 261 294 299 318 318 330 324 322 334 336 328 206
285 285 284 285 282 278 276 274 275 279 284 277 271 267 257 261 257 256 255 254 251 251 257 243 262 260 268 277 285 309 312 312 305 316 322 326 336 222
282 285 286 287 287 289 285 284 283 278 276 272 267 264 261 261 262 258 252 255 256 256 254 245 251 255 254 269 282 289 298 297 307 301 328 331 324 327
280 280 280 282 279 282 286 282 276 275 276 275 272 269 270 266 255 252 249 242 248 251 248 243 245 239 248 254 262 271 273 275 297 307 310 307 307 294
290 288 283 302 291 280 275 277 275 272 267 267 270 273 262 257 251 246 250 244 248 245 243 222 237 241 238 251 257 251 258 270 279 290 302 300 299 301
295 294 296 292 287 285 284 282 279 279 276 275 271 264 264 266 260 241 232 240 247 243 241 245 239 217 229 247 239 255 254 262 268 279 282 286 293 287
290 289 288 285 282 280 279 278 277 279 283 277 273 268 266 259 257 251 241 237 241 235 239 234 225 228 243 254 245 211 247 254 264 265 269 263 277 282
282 280 282 285 283 281 281 279 277 277 273 269 268 267 261 259 255 248 247 247 241 232 230 231 233 230 235 249 259 252 211 244 246 260 266 265 261 273
277 277 278 279 279 279 280 279 277 276 273 270 266 264 261 258 253 248 248 252 246 241 238 229 220 231 247 258 253 253 247 231 248 263 271 279 292 281
276 277 277 278 279 277 276 275 273 275 272 269 271 270 264 255 254 252 244 246 245 249 242 239 223 209 219 229 245 255 255 247 234 240 241 245 260 286
272 275 276 279 277 275 274 272 271 272 269 269 268 268 265 259 255 253 251 247 246 244 241 241 221 213 217 222 235 250 255 255 249 248 252 234 236 244